This demonstration page uses our WeatherBlox Daily Observations layout. Learn more.

Left ArrowRight Arrow

Hourly Observations for November 26, 2020

Temp ( °F °C ) Dew Point ( °F °C ) Humidity (%) Winds ( mph kmh ) Pressure ( in mb ) Visibility ( mi km ) Precip ( " mm )
12:54 am 00:54 Clear 28 -2.2 24 -4.4 85 85 SSE 6 9 29.96 1014 7 11.26538 0 0
1:54 am 01:54 Clear 28 -2.2 24 -4.4 85 85 SSE 3 6 29.94 1014 8 12.87472 0 0
2:54 am 02:54 Clear 29 -1.7 25 -3.9 85 85 Calm 29.95 1014 10 16.0934 0 0
3:54 am 03:54 Clear 32 0 27 -2.8 82 82 SSW 7 11 29.96 1014 10 16.0934 0 0
4:54 am 04:54 Clear 31 -0.6 26 -3.3 82 82 S 7 11 29.96 1014 10 16.0934 0 0
5:54 am 05:54 Clear 28 -2.2 24 -4.4 85 85 S 6 9 29.98 1015 10 16.0934 0 0
6:54 am 06:54 Clear 27 -2.8 23 -5 85 85 SSW 6 9 30 1016 10 16.0934 0 0
7:54 am 07:54 Sunny 28 -2.2 24 -4.4 85 85 Calm 30.02 1017 10 16.0934 0 0
8:54 am 08:54 Sunny 35 1.7 29 -1.7 78 78 Calm 30.04 1017 10 16.0934 0 0
9:54 am 09:54 Sunny 41 5 30 -1.1 65 65 VRB 3 6 30.05 1018 10 16.0934 0 0
10:54 am 10:54 Sunny 45 7.2 29 -1.7 54 54 NNW 9 15 30.06 1018 10 16.0934 0 0
11:54 am 11:54 Sunny 47 8.3 30 -1.1 52 52 NNW 9 15 30.05 1018 10 16.0934 0 0
12:54 pm 12:54 Sunny 49 9.4 31 -0.6 50 50 undefined N/A 30.03 1017 10 16.0934 0 0
1:54 pm 13:54 Sunny 48 8.9 31 -0.6 52 52 NNW 18 30 30.02 1017 10 16.0934 0 0
2:54 pm 14:54 Sunny 49 9.4 32 0 52 52 N 17 28 30.01 1016 10 16.0934 0 0
3:54 pm 15:54 Sunny 46 7.8 34 1.1 63 63 N 14 22 30.02 1017 10 16.0934 0 0
4:54 pm 16:54 Sunny 42 5.6 32 0 68 68 N 12 19 30.04 1017 10 16.0934 0 0
5:54 pm 17:54 Clear 34 1.1 29 -1.7 82 82 N 8 13 30.08 1019 10 16.0934 0 0
6:54 pm 18:54 Clear 34 1.1 30 -1.1 85 85 N 8 13 30.11 1020 10 16.0934 0 0
7:41 pm 19:41 Partly Cloudy 35 1.7 31 -0.6 85 85 N 14 22 30.14 1021 9 14.48406 0 0
7:50 pm 19:50 Mostly Cloudy 36 2 32 0 87 87 N 17 28 30.15 1021 9 14.48406 0 0
7:54 pm 19:54 Mostly Cloudy 36 2.2 32 0 86 86 N 16 26 30.13 1020 9 14.48406 0 0
8:54 pm 20:54 Cloudy 35 1.7 32 0 89 89 NNE 8 13 30.15 1021 8 12.87472 0 0
9:54 pm 21:54 Cloudy 35 1.7 32 0 89 89 N 12 19 30.18 1022 8 12.87472 0 0
10:09 pm 22:09 Cloudy 35 1.7 32 0 89 89 N 9 15 30.21 1023 8 12.87472 0 0
10:54 pm 22:54 Cloudy 34 1.1 31 -0.6 89 89 N 8 13 30.2 1023 7 11.26538 0 0
11:54 pm 23:54 Cloudy 33 0.6 30 -1.1 89 89 N 8 13 30.2 1023 7 11.26538 0 0

Powered by AerisWeather